Location: Shepherdstown, WV
(39.4326°N, 77.8042°W)
Time: 04:01:29
(UTC-04:00)

Vanguard 1 - Pass Details

Date: 29 September 2021
Orbit: 653 x 3829 km, 34.2° (Epoch: 18 October)

Event Time Altitude Azimuth Distance (km) Brightness Sun altitude
Rises 22:45:14 0° 275° (W) 6,423 14.8 -42.1°
Reaches altitude 10° 22:48:53 10° 273° (W) 5,737 14.4 -42.7°
Maximum altitude 23:08:23 69° 196° (SSW) 3,906 12.7 -45.3°
Enters shadow 23:09:29 69° 182° (S) 3,936 12.6 -45.5°
